Zurück zum Katalog

QIANFAN-216

AktivKommunikationPO
NORAD 69815·PAYLOAD·🇨🇳 China

Gestartet Jul 4, 2026 von Taiyuan Satellite Launch Center

Loading…

Nächste Überflüge (nächste 24 Stunden)

TLE

AktuellSource: Space-Track

Epoche: Sep 14, 2026, 21:05 UTC

1 69815U 26153R   26257.87894924 -.01839007  00000-0 -11305+1 0  9999
2 69815  88.9973 352.0076 0009067 239.0879 120.9414 14.09346878 10303

Verfolge QIANFAN-216 in Echtzeit mit AllMySat

Download on the App Store